Regional Weather Roundup
Issued by NWS Little Rock, AR

Home | Current Version | Previous Version | Graphics & Text | Print | Product List | Glossary On
Versions: 1 2 3 4 5 6 7 8 9 10 11 12 13 14 15 16 17 18 19 20 21 22 23 24 25 26 27 28 29 30 31 32 33 34 35 36 37 38 39 40 41 42 43 44 45 46 47 48 49 50
000
ASUS44 KLZK 021105
RWRLZK

WEATHER ROUNDUP FOR ARKANSAS
NATIONAL WEATHER SERVICE LITTLE ROCK AR
600 AM CDT THU JUL 02 2015

NOTE: "FAIR" INDICATES FEW OR NO CLOUDS BELOW 12,000 FEET WITH NO
SIGNIFICANT WEATHER AND/OR OBSTRUCTIONS TO VISIBILITY.

ARZ001-003-010-029-021200-
NORTHWEST ARKANSAS

CITY           SKY/WX    TMP DP  RH WIND       PRES   REMARKS
FAYETTEVILLE   CLOUDY    76  69  79 SW17      29.87R
FORT SMITH     MOCLDY    79  66  64 SW9       29.86R
HARRISON       CLOUDY    68  68 100 S8        29.91F
BENTONVILLE    MOCLDY    77  68  73 SW9       29.87R
ROGERS         CLOUDY    77  70  79 SW14      29.87R
SILOAM SPGS    MOCLDY    77  66  69 SW12G18     N/A
HIGHFILL       CLOUDY    78  71  79 SW13      29.86R
SPRINGDALE     CLOUDY    77  70  78 SW14      29.88
$$

ARZ004-005-016-021200-
NORTH CENTRAL ARKANSAS

CITY           SKY/WX    TMP DP  RH WIND       PRES   REMARKS
BATESVILLE     CLOUDY    75  72  88 CALM      29.90R
FLIPPIN        CLOUDY    70  68  94 W7        29.90R THUNDER
MTN HOME       LGT RAIN  68  68 100 VRB3      29.89F
$$

ARZ040-041-021200-
WEST CENTRAL ARKANSAS

CITY           SKY/WX    TMP DP  RH WIND       PRES   REMARKS
MENA           CLOUDY    77  70  78 W12G20    29.93S
MOUNT IDA      CLOUDY    77  66  68 VRB7      29.89S
$$

ARZ009-017-025-026-028-021200-
NORTHEAST ARKANSAS

CITY           SKY/WX    TMP DP  RH WIND       PRES   REMARKS
JONESBORO      LGT RAIN  76  74  93 W6        29.89R
NEWPORT        CLOUDY    77  76  96 CALM      29.91R
WALNUT RIDGE   CLOUDY    75  72  88 W7        29.90R
BLYTHEVILLE    LGT RAIN  78  75  90 W10       29.88S
$$

ARZ022-023-033-042-044-021200-
CENTRAL ARKANSAS

CITY           SKY/WX    TMP DP  RH WIND       PRES   REMARKS
LITTLE ROCK    CLOUDY    78  68  71 SW8       29.90R
N LITTLE ROCK    N/A     78  72  82 SW8       29.90R
JACKSONVILLE   CLOUDY    79  71  75 S3        29.90R
SEARCY         CLOUDY    76  73  91 S6        29.91S
HOT SPRINGS    CLOUDY    77  67  71 W8        29.92R
RUSSELLVILLE   CLOUDY    79  68  69 CALM      29.87R
CLINTON        LGT RAIN  73  73 100 CALM      29.90R
$$

ARZ036-021200-
EAST ARKANSAS

CITY           SKY/WX    TMP DP  RH WIND       PRES   REMARKS
WEST MEMPHIS   CLOUDY    77  73  87 SW8       29.90S
$$

ARZ050-053-066-070-073-021200-
SOUTHWEST ARKANSAS

CITY           SKY/WX    TMP DP  RH WIND       PRES   REMARKS
ARKADELPHIA    FAIR      76  69  79 SW9       29.93R
TEXARKANA      MOCLDY    74  67  78 SW13      29.94F
EL DORADO      CLOUDY    73  68  84 SW8       29.97R
DE QUEEN       CLOUDY    73  69  87 W3        29.92R
$$

ARZ056-057-069-021200-
SOUTHEAST ARKANSAS

CITY           SKY/WX    TMP DP  RH WIND       PRES   REMARKS
PINE BLUFF     CLOUDY    76  69  79 SW12      29.93R
STUTTGART      CLOUDY    77  70  78 SW7       29.92R
MONTICELLO     CLOUDY    76  70  82 SW9       29.95S

$$





USA.gov is the U.S. government's official web portal to all federal, state and local government web resources and services.